• In Germany
  • List of Countries
  • For 7 days
  • Water Temperature
  • Satellite Maps
  • Weather Map
  • Weather Widgets
  • user-avatar
    Login

    Hourly Weather Mykhailivs'ke

    Today, 24 September, Monday

    Time Temperature Precipitation Wind Pressure Humidity
    00:00 +9°C° 0 mm 2 mps 744 mmHg 76%
    01:00 +8°C° 0 mm 2 mps 744 mmHg 78%
    02:00 +8°C° 0 mm 2 mps 744 mmHg 79%
    03:00 +8°C° 0 mm 2 mps 744 mmHg 79%
    04:00 +8°C° 0 mm 3 mps 743 mmHg 79%
    05:00 +8°C° 0 mm 3 mps 743 mmHg 79%
    06:00 +8°C° 0 mm 4 mps 743 mmHg 74%
    07:00 +10°C° 0 mm 5 mps 742 mmHg 69%
    08:00 +11°C° 0 mm 6 mps 742 mmHg 64%
    09:00 +13°C° 0 mm 6 mps 742 mmHg 61%
    10:00 +12°C° 0 mm 7 mps 741 mmHg 59%
    11:00 +14°C° 0 mm 7 mps 741 mmHg 56%
    12:00 +14°C° 0.4 mm 7 mps 740 mmHg 59%
    13:00 +14°C° 0.4 mm 7 mps 739 mmHg 61%
    14:00 +14°C° 0.4 mm 7 mps 738 mmHg 63%
    15:00 +14°C° 2 mm 7 mps 738 mmHg 70%
    16:00 +13°C° 2 mm 6 mps 737 mmHg 77%
    17:00 +13°C° 2 mm 6 mps 737 mmHg 84%
    18:00 +11°C° 1.8 mm 6 mps 737 mmHg 85%
    19:00 +10°C° 1.8 mm 6 mps 737 mmHg 87%
    20:00 +10°C° 1.8 mm 5 mps 737 mmHg 89%
    21:00 +9°C° 0.5 mm 5 mps 737 mmHg 87%
    22:00 +9°C° 0.5 mm 5 mps 738 mmHg 86%
    23:00 +8°C° 0.5 mm 6 mps 738 mmHg 85%

    Tomorrow, 25 September, Tuesday

    Time Temperature Precipitation Wind Pressure Humidity
    00:00 +8°C° 0 mm 5 mps 738 mmHg 85%
    01:00 +8°C° 0 mm 5 mps 738 mmHg 86%
    02:00 +7°C° 0 mm 5 mps 738 mmHg 86%
    03:00 +7°C° 0 mm 5 mps 739 mmHg 88%
    04:00 +6°C° 0 mm 4 mps 739 mmHg 90%
    05:00 +6°C° 0 mm 4 mps 739 mmHg 93%
    06:00 +6°C° 0 mm 4 mps 739 mmHg 90%
    07:00 +7°C° 0 mm 4 mps 740 mmHg 87%
    08:00 +8°C° 0 mm 5 mps 740 mmHg 85%
    09:00 +8°C° 0.1 mm 5 mps 740 mmHg 82%
    10:00 +8°C° 0.1 mm 5 mps 741 mmHg 80%
    11:00 +9°C° 0.1 mm 5 mps 741 mmHg 78%
    12:00 +9°C° 0.2 mm 5 mps 742 mmHg 76%
    13:00 +9°C° 0.2 mm 5 mps 742 mmHg 74%
    14:00 +9°C° 0.2 mm 5 mps 742 mmHg 72%
    15:00 +10°C° 0.1 mm 4 mps 743 mmHg 71%
    16:00 +10°C° 0.1 mm 4 mps 743 mmHg 70%
    17:00 +10°C° 0.1 mm 4 mps 744 mmHg 69%
    18:00 +8°C° 0 mm 4 mps 745 mmHg 72%
    19:00 +7°C° 0 mm 4 mps 745 mmHg 75%
    20:00 +6°C° 0 mm 4 mps 746 mmHg 77%
    21:00 +5°C° 0 mm 4 mps 747 mmHg 79%
    22:00 +5°C° 0 mm 3 mps 747 mmHg 80%
    23:00 +4°C° 0 mm 3 mps 747 mmHg 81%

    Day after tomorrow, 26 September, Wednesday

    Time Temperature Precipitation Wind Pressure Humidity
    00:00 +4°C° 0 mm 3 mps 748 mmHg 82%
    01:00 +4°C° 0 mm 3 mps 748 mmHg 83%
    02:00 +3°C° 0 mm 3 mps 749 mmHg 84%
    03:00 +3°C° 0 mm 3 mps 750 mmHg 86%
    04:00 +3°C° 0 mm 3 mps 750 mmHg 87%
    05:00 +3°C° 0 mm 3 mps 751 mmHg 89%
    06:00 +4°C° 0 mm 3 mps 751 mmHg 84%
    07:00 +4°C° 0 mm 4 mps 752 mmHg 79%
    08:00 +5°C° 0 mm 4 mps 752 mmHg 73%
    09:00 +6°C° 0 mm 4 mps 753 mmHg 66%
    10:00 +7°C° 0 mm 4 mps 753 mmHg 60%
    11:00 +10°C° 0 mm 4 mps 753 mmHg 53%
    12:00 +10°C° 0 mm 4 mps 753 mmHg 50%
    13:00 +10°C° 0 mm 4 mps 753 mmHg 48%
    14:00 +11°C° 0 mm 4 mps 754 mmHg 45%
    15:00 +10°C° 0 mm 3 mps 754 mmHg 49%
    16:00 +9°C° 0 mm 3 mps 754 mmHg 52%
    17:00 +8°C° 0 mm 2 mps 754 mmHg 55%
    18:00 +7°C° 0 mm 2 mps 754 mmHg 57%
    19:00 +6°C° 0 mm 2 mps 754 mmHg 60%
    20:00 +5°C° 0 mm 2 mps 754 mmHg 62%
    21:00 +5°C° 0 mm 2 mps 754 mmHg 62%
    22:00 +4°C° 0 mm 3 mps 754 mmHg 62%
    23:00 +3°C° 0 mm 3 mps 753 mmHg 62%

    27 September, Thursday

    Time Temperature Precipitation Wind Pressure Humidity
    00:00 +4°C° 0 mm 3 mps 753 mmHg 61%
    01:00 +4°C° 0 mm 4 mps 752 mmHg 60%
    02:00 +4°C° 0 mm 4 mps 752 mmHg 58%
    03:00 +5°C° 0 mm 5 mps 752 mmHg 59%
    04:00 +5°C° 0 mm 5 mps 751 mmHg 60%
    05:00 +4°C° 0 mm 6 mps 751 mmHg 61%
    06:00 +5°C° 0 mm 7 mps 750 mmHg 60%
    07:00 +5°C° 0 mm 7 mps 750 mmHg 59%
    08:00 +6°C° 0 mm 8 mps 749 mmHg 59%
    09:00 +7°C° 0 mm 8 mps 749 mmHg 55%
    10:00 +10°C° 0 mm 8 mps 749 mmHg 52%
    11:00 +11°C° 0 mm 8 mps 748 mmHg 49%
    12:00 +11°C° 0 mm 8 mps 748 mmHg 50%
    13:00 +12°C° 0 mm 8 mps 748 mmHg 51%
    14:00 +12°C° 0 mm 8 mps 747 mmHg 53%
    15:00 +12°C° 0 mm 7 mps 747 mmHg 57%
    16:00 +13°C° 0 mm 6 mps 747 mmHg 61%
    17:00 +12°C° 0 mm 5 mps 747 mmHg 65%
    18:00 +12°C° 0 mm 5 mps 747 mmHg 65%
    19:00 +12°C° 0 mm 5 mps 747 mmHg 66%
    20:00 +12°C° 0 mm 5 mps 747 mmHg 66%
    21:00 +12°C° 0 mm 5 mps 747 mmHg 68%
    22:00 +12°C° 0 mm 5 mps 746 mmHg 70%
    23:00 +10°C° 0 mm 5 mps 746 mmHg 72%

    28 September, Friday

    Time Temperature Precipitation Wind Pressure Humidity
    00:00 +10°C° 0 mm 5 mps 746 mmHg 75%
    01:00 +10°C° 0 mm 4 mps 746 mmHg 78%
    02:00 +10°C° 0 mm 4 mps 746 mmHg 81%
    03:00 +10°C° 0 mm 4 mps 745 mmHg 84%
    04:00 +8°C° 0 mm 4 mps 745 mmHg 86%
    05:00 +8°C° 0 mm 4 mps 745 mmHg 89%
    06:00 +9°C° 0 mm 5 mps 745 mmHg 86%
    07:00 +10°C° 0 mm 5 mps 745 mmHg 83%
    08:00 +11°C° 0 mm 6 mps 744 mmHg 80%
    09:00 +14°C° 0 mm 6 mps 744 mmHg 74%
    10:00 +16°C° 0 mm 7 mps 744 mmHg 68%
    11:00 +18°C° 0 mm 7 mps 744 mmHg 63%
    12:00 +18°C° 0 mm 7 mps 744 mmHg 61%
    13:00 +20°C° 0 mm 7 mps 744 mmHg 59%
    14:00 +20°C° 0 mm 7 mps 744 mmHg 57%
    15:00 +19°C° 0 mm 6 mps 744 mmHg 61%
    16:00 +17°C° 0 mm 5 mps 744 mmHg 66%
    17:00 +17°C° 0 mm 4 mps 744 mmHg 70%
    18:00 +17°C° 0 mm 4 mps 744 mmHg 74%
    19:00 +16°C° 0 mm 3 mps 745 mmHg 77%
    20:00 +14°C° 0 mm 3 mps 745 mmHg 80%
    21:00 +13°C° 0 mm 3 mps 745 mmHg 83%
    22:00 +13°C° 0 mm 2 mps 746 mmHg 86%
    23:00 +12°C° 0 mm 2 mps 746 mmHg 89%

    29 September, Saturday

    Time Temperature Precipitation Wind Pressure Humidity
    00:00 +12°C° 0 mm 2 mps 746 mmHg 89%
    01:00 +10°C° 0 mm 2 mps 746 mmHg 89%
    02:00 +10°C° 0 mm 1 mps 746 mmHg 90%
    03:00 +10°C° 0 mm 1 mps 747 mmHg 89%
    04:00 +10°C° 0 mm 1 mps 747 mmHg 89%
    05:00 +9°C° 0 mm 1 mps 747 mmHg 88%
    06:00 +9°C° 0 mm 2 mps 747 mmHg 84%
    07:00 +10°C° 0 mm 2 mps 747 mmHg 79%
    08:00 +10°C° 0 mm 2 mps 747 mmHg 75%
    09:00 +10°C° 0.1 mm 2 mps 747 mmHg 74%
    10:00 +12°C° 0.1 mm 2 mps 747 mmHg 73%
    11:00 +12°C° 0.1 mm 2 mps 747 mmHg 72%
    12:00 +10°C° 0.7 mm 3 mps 747 mmHg 74%
    13:00 +10°C° 0.7 mm 3 mps 747 mmHg 76%
    14:00 +10°C° 0.7 mm 3 mps 747 mmHg 79%
    15:00 +8°C° 1.3 mm 4 mps 748 mmHg 81%
    16:00 +7°C° 1.3 mm 4 mps 748 mmHg 83%
    17:00 +7°C° 1.3 mm 4 mps 748 mmHg 85%
    18:00 +7°C° 0.7 mm 4 mps 749 mmHg 84%
    19:00 +6°C° 0.7 mm 4 mps 749 mmHg 84%
    20:00 +6°C° 0.7 mm 4 mps 750 mmHg 83%
    21:00 +6°C° 0 mm 4 mps 750 mmHg 83%
    22:00 +6°C° 0 mm 4 mps 750 mmHg 83%
    23:00 +5°C° 0 mm 4 mps 750 mmHg 83%
    Show more

    3.3.7123123